Theta_e
308 308 307 309 308 304 308 310 312 313 314 314 317 317 315 317 319 317 324 322 320 320 327 324 325 331 332 333 334 334 335 337 340 341 340 339 339 339 339 339 338 336 332 330 328 328 333 332 330
304 307 309 309 304 305 307 306 311 312 313 312 314 315 313 313 317 318 317 317 318 318 321 326 325 332 332 333 334 334 332 335 339 341 340 339 339 339 339 338 338 336 332 330 328 327 329 330 328
304 306 310 305 302 304 305 304 307 309 312 313 312 313 314 313 316 317 317 315 315 316 318 328 328 332 333 333 334 334 332 331 335 340 339 339 338 338 338 337 337 336 332 330 328 328 329 329 328
308 309 311 307 307 305 305 305 306 308 309 310 311 309 312 312 313 313 314 314 313 317 320 329 329 334 334 333 333 335 334 331 334 339 339 338 337 337 337 337 336 334 331 333 330 329 329 329 328
310 312 305 308 308 307 305 305 305 304 305 306 308 308 308 310 311 311 311 312 314 314 329 330 332 334 334 333 332 334 335 333 331 334 338 337 335 333 334 334 334 332 331 335 333 330 330 329 329
311 310 307 306 305 305 305 306 305 305 305 306 306 306 308 309 309 310 311 312 312 319 328 335 332 331 332 333 333 333 334 335 333 331 331 332 332 332 331 332 332 331 332 336 335 332 330 330 329
305 308 307 306 303 303 303 306 304 304 304 305 306 305 307 307 307 307 308 309 310 312 316 334 336 333 334 334 334 333 333 335 335 335 333 332 333 334 334 334 333 332 333 336 336 331 330 330 330
308 305 306 305 306 306 305 306 306 305 304 305 306 304 304 305 306 307 307 308 310 311 313 326 335 339 336 335 335 334 334 334 336 337 336 334 334 335 335 335 334 333 335 336 336 332 331 330 330
307 304 304 302 303 303 303 300 301 301 302 304 305 306 306 306 307 307 307 307 308 313 317 331 328 332 339 333 333 335 335 335 335 336 336 336 335 335 336 335 334 334 335 336 337 333 331 330 329
302 303 302 302 299 298 297 297 297 297 298 299 299 301 302 304 304 304 304 306 306 307 310 324 329 328 331 335 333 337 335 336 336 335 336 336 336 336 336 336 335 334 335 336 335 334 331 329 329
296 296 294 296 296 297 296 294 294 295 296 297 297 297 297 298 301 301 301 304 305 306 307 310 326 325 327 327 338 342 338 336 336 335 335 336 335 335 336 336 335 335 336 336 335 332 330 329 329
294 294 295 295 294 294 294 293 293 293 293 293 294 295 295 295 295 296 300 303 305 306 306 308 310 325 325 328 337 340 340 338 336 336 335 335 335 335 335 335 335 335 335 334 334 331 329 329 328
293 293 293 293 293 293 293 292 292 292 292 293 293 292 293 293 294 295 296 298 302 305 306 307 308 311 325 326 329 338 339 339 336 336 335 335 336 335 335 335 335 336 335 334 333 330 328 328 327
293 293 292 293 292 292 292 292 292 293 294 293 293 293 293 294 293 294 293 294 297 302 305 306 307 308 314 324 325 335 337 337 338 337 335 335 335 335 334 334 335 335 335 334 332 329 328 327 320
293 292 292 292 292 292 293 292 292 293 294 293 293 293 293 293 293 294 294 294 296 299 303 305 306 307 307 316 324 330 334 336 336 337 336 335 335 334 334 334 334 334 334 334 331 328 324 315 308
292 291 292 292 292 292 292 293 293 294 293 293 293 293 293 293 294 294 295 295 297 297 300 304 305 306 307 310 322 325 327 330 335 336 336 336 336 335 334 333 333 335 334 333 331 329 319 308 308
292 292 292 293 293 292 292 293 294 294 294 294 294 294 294 293 293 294 294 295 296 297 297 301 304 306 306 307 317 323 325 327 328 333 334 334 334 334 333 333 333 331 331 328 329 305 307 306 304
292 292 293 293 292 293 293 293 294 294 295 295 295 295 294 294 294 294 294 294 295 296 297 298 303 305 306 306 313 323 325 326 326 329 331 332 333 333 332 334 332 328 326 326 325 310 305 305 304
292 292 292 292 293 293 293 293 294 294 293 293 294 295 295 295 294 294 294 294 294 295 297 298 301 305 305 307 314 323 324 325 324 330 329 330 332 332 332 332 328 326 326 325 321 308 303 303 303
293 294 293 293 293 293 293 292 292 292 293 293 293 293 293 294 294 294 294 294 294 295 297 298 299 304 304 306 310 322 325 325 328 327 329 330 328 330 331 329 326 326 326 326 318 304 304 304 304
294 294 293 293 293 292 291 292 293 292 291 290 290 290 290 291 292 293 294 293 293 295 295 296 298 300 303 305 306 316 325 326 325 328 329 329 328 327 331 325 325 325 327 323 313 306 305 305 304
292 292 293 293 291 290 292 292 292 292 291 290 289 289 289 289 290 291 291 294 294 294 294 294 297 299 301 305 305 313 323 326 326 326 328 327 328 325 327 326 323 322 323 322 309 305 304 307 306
290 292 292 291 290 291 290 292 291 290 290 289 289 289 288 288 289 289 291 292 293 292 294 294 295 298 300 303 305 315 317 325 323 324 327 326 325 325 324 326 323 322 324 325 310 305 305 306 308
291 287 289 283 284 288 290 293 292 291 290 289 288 287 287 287 287 288 290 291 293 293 293 294 295 297 301 303 304 315 317 323 324 324 325 325 325 325 325 326 325 325 322 320 317 307 306 306 306
282 281 280 282 280 285 291 291 291 289 288 287 287 286 286 286 286 286 288 291 291 294 295 294 295 297 302 303 304 312 316 321 322 324 323 322 323 323 321 320 325 325 325 322 318 309 309 307 307
281 282 285 289 283 290 291 287 291 288 288 287 286 285 285 284 284 285 287 290 290 292 295 297 296 298 302 304 305 307 316 316 317 319 316 314 315 317 321 321 322 321 318 322 317 314 310 309 309
282 287 289 292 274 282 287 289 289 290 288 286 285 284 284 284 284 284 286 287 289 291 294 297 301 302 302 304 305 307 312 315 318 317 313 313 313 316 319 321 321 321 318 316 314 309 310 312 309
288 291 289 286 287 285 285 287 289 287 286 285 283 284 283 283 283 283 285 286 288 291 293 297 301 306 305 304 306 310 313 313 316 317 316 315 316 317 317 317 314 314 315 313 314 312 310 315 318
283 287 293 294 289 289 288 287 282 284 285 284 283 283 283 282 282 282 284 285 287 290 292 296 300 304 309 312 310 312 312 313 314 315 315 314 315 316 316 314 315 314 314 314 315 315 315 312 311
284 288 294 292 288 288 291 289 282 284 284 284 283 282 282 282 281 282 284 284 285 288 291 294 298 303 306 310 313 312 312 313 314 314 313 316 317 316 316 316 314 317 317 315 315 314 316 315 315
Wind_Speed
4 4 7 7 2 4 5 8 3 4 4 5 9 6 9 12 7 5 6 4 20 20 18 18 25 31 35 34 35 37 40 41 38 36 33 32 32 31 29 27 25 23 22 21 21 20 19 16 15
4 5 9 3 3 2 10 8 12 18 11 4 13 8 3 9 28 20 25 22 21 23 25 15 23 31 36 35 36 37 40 42 41 38 36 34 33 32 31 29 27 24 23 23 22 21 19 17 16
4 8 6 4 4 11 15 9 14 12 27 17 5 5 7 6 9 11 22 27 26 27 26 20 21 30 36 36 37 39 41 43 43 41 38 36 34 33 31 30 28 26 24 24 24 22 21 19 18
2 5 2 3 17 22 18 5 2 1 12 17 9 8 15 25 15 19 21 27 28 27 31 24 21 26 33 34 37 40 42 42 43 43 40 37 35 34 32 30 29 28 27 25 25 24 23 21 21
6 3 2 5 21 22 14 11 13 4 3 3 2 8 13 22 21 22 28 27 29 30 29 25 23 27 31 33 36 40 43 43 43 43 42 39 37 35 34 32 31 30 29 26 26 24 23 22 22
4 2 1 11 24 27 16 13 6 2 8 16 10 14 31 32 13 18 23 24 26 25 28 29 25 26 29 33 33 37 42 44 44 43 43 41 39 37 35 34 33 31 30 29 26 25 26 24 24
4 2 8 8 23 21 6 5 3 6 10 14 18 13 28 25 25 28 34 31 29 28 27 33 33 34 34 33 36 36 42 45 46 45 44 43 41 39 37 36 35 34 31 30 29 27 28 26 25
3 3 5 8 18 24 12 12 13 15 10 8 9 6 7 18 30 32 26 21 23 27 27 31 34 35 37 33 37 38 42 45 47 46 46 44 43 40 39 38 36 35 33 31 31 29 28 28 28
5 3 11 7 6 15 18 11 14 19 26 19 14 31 33 35 39 42 38 31 24 19 25 30 32 35 38 33 34 37 42 45 47 47 47 46 45 41 40 39 38 37 35 33 32 30 30 30 30
4 5 8 5 5 10 23 16 22 16 27 31 32 40 42 45 41 39 40 36 39 32 23 26 30 35 36 38 37 38 42 46 47 47 46 47 46 45 43 41 39 39 37 35 33 32 32 32 31
3 6 4 19 18 20 24 29 24 17 26 24 31 38 44 50 54 50 47 41 38 39 35 23 23 34 37 38 39 40 42 47 49 49 48 47 48 47 46 44 42 41 39 39 35 35 34 34 31
4 11 10 19 23 22 18 29 22 28 33 32 36 38 43 40 46 48 53 53 45 44 40 32 20 29 38 38 41 41 44 47 51 52 51 49 48 49 50 49 48 46 45 43 38 37 37 35 33
5 12 20 27 29 23 25 25 29 34 43 46 41 40 42 45 41 43 46 54 59 52 46 41 32 20 32 38 41 44 44 48 51 53 54 53 53 53 52 53 51 48 48 43 40 39 38 37 33
7 9 19 25 33 23 23 26 30 43 47 47 43 42 44 45 42 42 46 55 55 57 51 44 40 30 25 38 42 45 46 48 51 53 55 55 56 56 55 54 53 53 48 42 42 41 38 35 34
15 11 15 22 28 15 13 13 19 45 49 38 37 33 37 41 45 41 42 48 49 55 54 46 41 39 26 34 43 43 48 46 52 55 56 55 58 57 57 55 56 55 50 44 45 42 36 35 34
8 5 10 13 10 10 12 17 22 44 31 35 38 39 37 44 45 43 42 44 43 47 53 47 38 39 36 26 42 43 44 43 46 52 55 58 58 57 53 55 53 51 52 46 47 41 41 39 34
5 6 10 15 15 5 5 14 27 42 30 31 38 40 40 41 44 47 42 39 41 46 50 49 40 32 33 34 36 44 46 45 43 47 50 54 57 56 55 53 51 49 50 48 45 42 42 39 35
11 8 14 18 10 11 19 24 29 35 25 31 36 39 40 41 45 47 43 47 44 42 47 51 45 34 31 34 31 42 41 41 45 46 45 49 51 53 53 50 42 32 32 37 39 43 41 40 35
12 14 17 22 25 17 20 20 31 28 23 19 30 33 36 39 42 42 44 45 46 42 39 43 50 39 32 27 30 40 43 43 42 44 44 45 47 49 52 50 47 42 48 43 43 44 43 39 37
14 18 22 24 15 9 22 26 32 25 19 13 13 16 21 24 29 35 39 42 43 44 43 38 45 48 35 32 27 38 37 39 39 39 42 44 40 41 48 45 34 42 46 49 48 49 46 40 37
17 15 19 20 23 10 14 14 17 4 5 13 18 20 22 23 28 31 30 33 43 39 36 36 42 50 42 32 28 34 34 37 38 40 41 46 40 36 57 37 41 41 47 53 51 50 47 46 41
14 7 15 16 11 11 6 12 12 3 3 11 15 22 27 28 30 31 37 34 39 45 42 38 36 40 44 34 29 34 37 34 38 42 39 44 47 36 52 46 46 40 43 49 51 51 49 46 45
11 13 13 17 16 13 4 6 5 6 5 15 16 22 27 29 29 33 33 34 30 36 39 35 34 34 38 36 29 34 38 37 37 37 36 37 45 42 51 54 47 45 45 45 51 52 50 45 45
10 6 14 3 1 3 7 6 16 2 7 12 13 22 27 31 30 32 27 30 26 27 30 31 32 30 35 34 29 33 36 37 35 35 40 38 41 42 45 47 47 54 45 49 54 53 49 47 44
7 6 4 5 4 5 7 12 11 1 5 9 15 22 27 29 30 32 29 26 23 18 21 28 30 29 31 32 31 32 36 36 34 32 34 30 32 31 38 42 48 48 50 58 58 53 48 47 45
3 6 3 6 3 17 10 6 4 5 3 16 19 25 28 29 30 31 27 23 21 17 16 18 25 28 30 29 29 31 36 35 31 31 23 13 17 23 24 29 33 41 44 44 49 49 47 46 43
5 2 4 5 1 3 3 6 6 11 16 18 17 24 26 29 30 29 25 21 18 13 10 10 15 24 30 30 26 28 33 35 33 34 24 17 21 27 20 24 28 25 29 36 41 47 47 43 42
5 2 4 1 5 6 5 5 4 13 15 16 15 16 26 29 31 30 25 20 15 8 2 6 10 18 28 31 27 30 29 33 32 32 30 27 25 26 24 22 14 12 18 18 37 41 41 41 38
4 4 5 3 2 3 5 5 5 7 10 13 14 22 26 28 31 30 25 21 15 8 7 9 12 16 20 24 29 27 30 29 26 21 20 18 21 23 28 21 17 17 22 19 24 38 33 40 39
5 5 2 2 6 4 4 8 4 5 6 10 13 22 26 27 30 29 25 24 20 15 13 17 17 20 23 24 27 27 29 29 25 21 15 17 14 13 13 16 16 16 26 28 30 28 36 27 39
Wind_Direction
294 237 170 166 67 56 251 233 210 216 247 222 142 170 206 210 178 211 187 304 327 317 296 249 228 222 214 205 201 201 201 199 200 197 194 189 188 188 186 186 186 185 186 182 181 178 174 169 162
289 183 161 151 128 218 254 191 213 218 206 54 214 237 241 247 235 252 276 299 311 309 301 259 233 219 211 208 204 203 201 201 201 201 196 194 190 191 190 189 189 189 191 187 183 180 178 173 167
267 179 161 150 192 226 247 201 229 237 237 258 307 234 244 230 244 248 271 291 296 286 282 268 238 219 211 210 204 203 202 203 203 203 200 196 195 194 193 193 192 192 192 191 184 184 179 176 172
190 187 173 162 229 245 239 221 138 344 268 245 241 275 250 253 263 271 278 293 302 298 274 252 231 219 216 217 212 205 205 204 204 203 204 200 199 198 198 198 196 195 191 196 190 186 182 180 178
187 169 217 239 245 255 237 267 280 275 290 339 271 264 281 270 281 297 298 297 299 295 268 250 229 221 219 220 217 209 207 207 207 205 205 204 203 202 200 200 200 197 191 191 186 185 187 184 182
187 137 184 238 243 245 253 278 283 207 261 278 268 264 273 282 296 285 286 297 305 300 273 241 228 225 223 221 219 215 210 209 209 209 206 206 204 202 200 199 201 198 193 192 192 189 188 186 186
143 176 239 255 257 273 287 336 307 294 280 279 268 272 268 281 284 292 282 292 290 289 282 259 237 227 221 222 218 216 213 210 210 211 210 207 205 203 202 200 201 199 197 196 194 191 189 189 187
208 152 259 240 259 273 288 295 318 346 323 300 330 257 297 314 305 300 299 288 277 279 270 266 252 232 224 224 222 217 214 212 212 212 212 210 207 205 204 202 202 201 199 198 191 194 192 189 188
202 244 250 252 242 262 320 352 311 305 293 298 292 284 296 303 300 297 296 292 285 279 269 258 248 248 228 229 230 223 217 214 215 215 214 213 210 207 207 206 204 204 202 201 193 193 193 190 187
182 222 247 228 351 311 305 301 309 310 302 288 298 291 289 293 301 305 305 298 291 290 294 273 243 248 237 228 228 223 219 216 216 218 216 214 211 208 208 208 207 206 205 203 192 194 193 191 187
274 245 359 283 299 301 300 301 301 285 277 288 295 297 298 296 291 292 295 291 290 289 287 292 254 247 242 237 229 225 220 217 217 218 219 217 212 211 209 206 206 205 205 205 192 191 191 192 191
279 254 266 286 284 286 285 297 286 284 280 287 282 284 288 284 287 287 283 283 283 286 283 281 289 250 243 239 234 229 223 219 217 216 218 216 216 213 210 207 205 205 206 206 194 190 190 192 190
262 275 294 287 292 284 283 272 276 284 285 287 282 279 278 280 278 278 277 278 276 278 279 276 278 270 244 242 239 232 229 223 221 218 217 217 217 215 213 210 206 206 208 203 191 190 191 191 192
245 260 258 272 277 279 270 277 281 281 287 275 273 270 276 279 275 273 275 273 273 271 273 275 270 264 254 246 243 233 231 229 224 220 219 217 219 219 213 213 208 209 206 198 191 190 191 192 194
263 279 275 270 269 261 267 257 251 259 273 276 277 273 274 272 274 270 267 271 266 267 267 269 273 266 261 252 243 238 233 231 228 224 223 220 221 224 216 213 214 210 205 194 188 187 189 197 193
272 242 266 256 231 239 178 264 269 270 274 279 277 277 270 268 272 270 269 261 259 260 261 263 268 267 262 264 244 241 240 237 229 228 227 223 224 226 220 215 216 211 199 197 190 188 189 196 195
219 257 227 281 285 230 180 287 274 278 281 279 274 273 272 268 267 269 265 262 261 258 259 259 261 262 258 256 251 239 241 238 239 235 232 231 226 224 225 218 210 203 191 187 180 187 192 191 191
256 259 274 276 269 321 279 276 273 275 275 270 274 273 271 268 263 262 258 264 258 257 254 253 255 256 252 250 254 236 234 236 237 237 239 240 231 227 224 213 200 192 194 184 184 191 193 192 190
264 269 267 281 285 293 286 283 282 291 295 277 273 270 271 269 270 267 265 268 264 254 254 251 248 249 250 250 245 231 231 235 239 236 236 238 232 228 222 199 200 192 196 193 191 191 195 190 186
259 268 283 287 285 309 295 285 284 294 280 313 336 349 339 319 293 276 269 269 267 258 247 246 244 248 250 245 247 232 228 230 225 235 232 232 236 231 209 194 190 200 200 198 196 196 190 191 187
271 277 282 276 301 278 281 283 300 311 59 1 1 343 333 327 323 313 301 279 270 260 254 251 243 245 249 245 244 236 226 228 225 221 228 224 234 232 212 202 195 193 213 197 195 200 198 192 192
281 243 275 287 313 296 53 289 310 283 326 353 344 339 332 327 326 322 314 292 267 266 261 253 248 242 244 243 241 232 219 211 214 216 222 222 220 227 201 194 195 199 198 202 200 201 202 201 194
248 304 281 270 267 294 299 227 274 24 336 344 328 323 324 324 324 320 316 306 276 264 265 258 249 245 239 243 239 226 222 211 216 210 217 226 215 214 208 197 196 197 198 205 205 204 203 204 204
308 321 294 352 157 237 248 202 299 313 325 315 317 321 321 323 324 322 319 313 288 265 259 257 248 244 230 234 235 222 218 210 205 208 211 218 218 216 217 211 207 200 198 206 210 208 206 207 209
40 27 325 346 355 237 300 300 264 13 335 326 319 323 328 327 326 325 328 319 312 276 255 252 248 238 219 227 228 221 220 209 209 205 202 201 206 217 221 217 211 207 210 209 209 208 211 210 211
234 157 187 291 281 295 288 244 262 181 12 343 334 331 331 331 331 330 341 327 315 303 261 245 239 226 211 213 220 217 217 215 217 212 205 226 250 236 223 226 221 217 208 210 214 211 211 213 214
272 228 222 278 75 359 267 291 123 344 348 343 339 338 335 333 334 336 342 346 333 316 287 241 218 212 202 204 214 218 216 217 214 209 208 210 217 226 224 219 217 227 241 229 217 213 212 213 219
183 293 318 318 312 300 279 283 260 334 328 334 333 337 336 337 340 348 352 352 352 331 299 194 190 193 192 194 209 207 215 215 218 213 209 209 214 208 198 195 207 227 220 260 235 221 219 220 218
341 297 227 258 208 269 307 269 215 280 323 325 335 341 338 340 344 354 5 6 14 19 74 111 143 162 170 185 188 200 202 206 207 210 205 209 202 209 204 203 212 221 233 218 230 241 237 223 223
197 234 253 256 289 236 271 279 227 271 314 338 340 341 343 346 352 7 16 16 25 45 68 82 102 133 136 158 167 180 191 190 189 194 207 201 211 221 216 212 207 231 229 227 232 234 248 245 237